Terug naar catalogus

SL-14 DEB

ActiefPO
NORAD 26008·DEBRIS·🇷🇺 Russia

Gelanceerd Sep 28, 1991 vanaf Plesetsk Cosmodrome

Loading…

Volgende Passages (komende 24 uur)

TLE

VersSource: Space-Track

Epoch: Sep 14, 2026, 15:54 UTC

1 26008U 91068T   26257.66308190  .00000041  00000-0  16918-3 0  9998
2 26008  82.6330 332.2571 0090529 234.0053 294.7052 12.63154549241573

Volg SL-14 DEB in realtime met AllMySat

Download on the App Store